Weather WX

World > North America > United States > New Jersey

Woodcliff, New Jersey Regional Weather

Lat: 40.79N, Lon: 74.02W
Wx Zone: NJZ006
Warning FLW WEATHER ALERT - FLASH FLOOD WATCH (More Info. Click Here) Warning
Feedback

Woodcliff, NJ Regional Weather

Expires:201907171700;;202980
ASUS41 KPHI 171612
RWRPHI

REGIONAL WEATHER ROUNDUP
NATIONAL WEATHER SERVICE MOUNT HOLLY NJ
1200 PM EDT WED JUL 17 2019

NOTE:  "FAIR" INDICATES FEW OR NO CLOUDS BELOW 12,000 FEET WITH NO
SIGNIFICANT WEATHER AND/OR OBSTRUCTIONS TO VISIBILITY.

 * = STATION DOES NOT REPORT PRECIPITATION (E.G. RAIN, SNOW, ETC.) 
        OR FOG.


NJZ001>014-171700-
NORTHERN NEW JERSEY
  
CITY           SKY/WX    TMP DP  RH WIND       PRES   REMARKS
SUSSEX         FAIR      88  72  58 VRB6      29.95F HX  94           
ANDOVER*         N/A     88  73  61 VRB6      29.97S HX  95           
MORRISTOWN     PTSUNNY   90  77  66 SW5       29.96S HX 102           
NEWARK         PTSUNNY   93  74  53 SW8       29.93F HX 103           
TETERBORO      FAIR      92  72  51 SW9       29.92F HX  99           
CALDWELL       FAIR      92  74  55 VRB5      29.94F HX 101           
SOMERVILLE     FAIR      90  75  61 CALM      29.93F HX 100           
ALLAIRE*       FAIR      92  76  59 SW10      29.97F HX 104           
TOMS RIVER*    PTSUNNY   95  78  58 SW9       29.96F HX 111           

$$

SKY/WX - Weather  TMP - Temperature  DP - Dew Point  RH - Relative Humidity
WIND - Wind Direction/Speed PRES - Barometric Pressure VSB - Visibility
WCI - Wind Chill Index E13G22 Wind - East Wind 13 mph/Gusts of 22 mph